Date String (YYYY-MM-DD hh:mm:ss) UTC,Instrument flags,absolute air pressure of the measurement (hPa),sample flow rate (lpm),inlet stack bypass flow (lpm),air temperature of the measurement (°C),ambient temperature measured by the external sensor (°C),aerosol sample conditioner tube jacket temperature (°C),OPC LED temperature (°C),internal box temperature (°C),relative humidity of the measurement (%),span deviation,mass concentration of particles derived from Lorenz-Mie calculation of OPC scattering (μg/m³),mass concentration of particles derived from Lorenz-Mie calculation of OPC scattering (μg/m³),mass concentration of particles derived from Lorenz-Mie calculation of OPC scattering (μg/m³)
DateTimeUTC,F1_M11,P_M11,Q1_M11,Q2_M11,T1_M11,T2_M11,T3_M11,T4_M11,T5_M11,U1_M11,ZSPAN_M11,X0_M11,X2_M11,X1_M11
2024-04-09 15:00:00,SystemResetWarning,0828.1,4.99,000.00,020.5,020.1,000.0,028.8,022.2,017.4,0000.0,0013.06,0003.21,0001.77
2024-04-09 15:01:00,SystemResetWarning,0828.0,5.00,000.00,020.5,020.1,000.0,028.8,022.2,017.3,0000.0,0013.25,0003.24,0001.77
2024-04-09 15:02:00,SystemResetWarning,0828.0,5.01,000.00,020.5,020.1,000.0,028.8,022.3,017.5,0000.0,0013.05,0003.25,0001.77
2024-04-09 15:03:00,SystemResetWarning,0828.1,5.01,000.00,020.5,020.1,000.0,028.8,022.3,017.7,0000.0,0012.24,0003.25,0001.78
2024-04-09 15:04:00,SystemResetWarning,0828.1,5.00,000.00,020.5,020.2,000.0,028.8,022.3,017.9,0000.0,0011.76,0003.22,0001.78
2024-04-09 15:05:00,SystemResetWarning,0828.2,5.01,000.00,020.6,020.2,000.0,028.8,022.3,017.6,0000.0,0012.12,0003.23,0001.79
2024-04-09 15:06:00,SystemResetWarning,0828.2,5.00,000.00,020.6,020.2,000.0,028.8,022.3,017.6,0000.0,0013.41,0003.22,0001.79
2024-04-09 15:07:00,SystemResetWarning,0828.2,5.00,000.00,020.6,020.2,000.0,028.8,022.3,017.5,0000.0,0013.67,0003.16,0001.78
2024-04-09 15:08:00,SystemResetWarning,0828.2,4.99,000.00,020.6,020.2,000.0,028.8,022.3,017.2,0000.0,0013.67,0003.10,0001.75
2024-04-09 15:09:00,SystemResetWarning,0828.1,4.99,000.00,020.6,020.2,000.0,028.8,022.3,017.5,0000.0,0012.83,0003.00,0001.73
2024-04-09 15:10:00,SystemResetWarning,0828.2,5.00,000.00,020.6,020.2,000.0,028.9,022.4,017.5,0000.0,0013.15,0002.98,0001.71
2024-04-09 15:11:00,SystemResetWarning,0828.2,5.00,000.00,020.6,020.2,000.0,028.9,022.4,017.2,0000.0,0013.43,0002.94,0001.70
2024-04-09 15:12:00,SystemResetWarning,0828.2,5.01,000.00,020.6,020.2,000.0,028.9,022.4,017.2,0000.0,0013.39,0002.93,0001.70
2024-04-09 15:13:00,SystemResetWarning,0828.3,5.00,000.00,020.6,020.2,000.0,028.9,022.4,017.4,0000.0,0013.41,0002.96,0001.70
2024-04-09 15:14:00,SystemResetWarning,0828.3,5.00,000.00,020.7,020.3,000.0,028.9,022.4,018.0,0000.0,0013.30,0002.93,0001.70
2024-04-09 15:15:00,SystemResetWarning,0828.3,5.00,000.00,020.7,020.3,000.0,028.9,022.4,017.8,0000.0,0013.25,0002.93,0001.69
2024-04-09 15:16:00,SystemResetWarning,0828.3,5.00,000.00,020.7,020.3,000.0,028.9,022.4,018.0,0000.0,0012.43,0002.87,0001.67
2024-04-09 15:17:00,SystemResetWarning,0828.3,5.00,000.00,020.7,020.3,000.0,028.9,022.4,018.0,0000.0,0010.35,0002.78,0001.65
2024-04-09 15:18:00,SystemResetWarning,0828.2,5.00,000.00,020.7,020.3,000.0,029.0,022.5,017.9,0000.0,0010.05,0002.82,0001.64
2024-04-09 15:19:00,SystemResetWarning,0828.2,5.01,000.00,020.7,020.3,000.0,029.0,022.4,017.9,0000.0,0009.37,0002.84,0001.65
2024-04-09 15:20:00,SystemResetWarning,0828.2,5.00,000.00,020.7,020.3,000.0,029.0,022.5,017.9,0000.0,0009.00,0002.84,0001.63
2024-04-09 15:21:00,SystemResetWarning,0828.3,4.99,000.00,020.8,020.4,000.0,029.0,022.5,018.5,0000.0,0008.66,0002.86,0001.63
2024-04-09 15:22:00,SystemResetWarning,0828.2,4.99,000.00,020.8,020.4,000.0,029.0,022.5,018.1,0000.0,0008.44,0002.83,0001.62
2024-04-09 15:23:00,SystemResetWarning,0828.2,5.00,000.00,020.8,020.4,000.0,029.0,022.5,018.2,0000.0,0008.34,0002.86,0001.63
2024-04-09 15:24:00,SystemResetWarning,0828.2,4.99,000.00,020.8,020.4,000.0,029.0,022.5,018.4,0000.0,0008.53,0002.82,0001.63
2024-04-09 15:25:00,SystemResetWarning,0828.2,5.01,000.00,020.8,020.4,000.0,029.0,022.5,018.1,0000.0,0009.85,0002.76,0001.62
2024-04-09 15:26:00,SystemResetWarning,0828.2,5.01,000.00,020.8,020.4,000.0,029.1,022.5,017.8,0000.0,0010.55,0002.74,0001.60
2024-04-09 15:27:00,SystemResetWarning,0828.2,5.00,000.00,020.8,020.4,000.0,029.1,022.6,018.1,0000.0,0010.81,0002.71,0001.61
2024-04-09 15:28:00,SystemResetWarning,0828.2,5.00,000.00,020.8,020.4,000.0,029.1,022.5,018.2,0000.0,0011.01,0002.75,0001.62
2024-04-09 15:29:00,SystemResetWarning,0828.2,4.99,000.00,020.8,020.4,000.0,029.1,022.6,017.9,0000.0,0010.62,0002.63,0001.61
2024-04-09 15:30:00,SystemResetWarning,0828.2,5.00,000.00,020.8,020.4,000.0,029.1,022.6,018.1,0000.0,0010.60,0002.51,0001.60
2024-04-09 15:31:00,SystemResetWarning,0828.3,4.99,000.00,020.8,020.4,000.0,029.1,022.6,018.2,0000.0,0010.47,0002.42,0001.60
2024-04-09 15:32:00,SystemResetWarning,0828.4,5.00,000.00,020.9,020.4,000.0,029.1,022.6,017.9,0000.0,0010.28,0002.35,0001.60
2024-04-09 15:33:00,SystemResetWarning,0828.4,5.00,000.00,020.9,020.4,000.0,029.1,022.6,017.9,0000.0,0009.90,0002.34,0001.60
2024-04-09 15:34:00,SystemResetWarning,0828.4,5.01,000.00,020.9,020.4,000.0,029.1,022.6,018.0,0000.0,0010.54,0002.26,0001.58
2024-04-09 15:35:00,SystemResetWarning,0828.4,5.01,000.00,020.9,020.4,000.0,029.1,022.6,018.1,0000.0,0010.37,0002.20,0001.58
2024-04-09 15:36:00,SystemResetWarning,0828.4,5.00,000.00,020.9,020.5,000.0,029.2,022.6,018.1,0000.0,0009.95,0002.19,0001.58
2024-04-09 15:37:00,SystemResetWarning,0828.4,5.00,000.00,020.9,020.5,000.0,029.2,022.6,017.8,0000.0,0008.74,0002.13,0001.56
2024-04-09 15:38:00,SystemResetWarning,0828.4,4.99,000.00,020.9,020.5,000.0,029.2,022.6,017.7,0000.0,0008.66,0002.09,0001.56
2024-04-09 15:39:00,SystemResetWarning,0828.5,4.99,000.00,020.9,020.5,000.0,029.2,022.6,017.8,0000.0,0008.84,0002.03,0001.53
2024-04-09 15:40:00,SystemResetWarning,0828.6,5.01,000.00,020.9,020.5,000.0,029.2,022.7,017.8,0000.0,0008.63,0002.05,0001.52
2024-04-09 15:41:00,SystemResetWarning,0828.5,5.01,000.00,020.9,020.5,000.0,029.2,022.7,017.6,0000.0,0008.34,0002.08,0001.52
2024-04-09 15:42:00,SystemResetWarning,0828.5,4.99,000.00,020.9,020.5,000.0,029.2,022.7,017.6,0000.0,0008.28,0002.06,0001.51
2024-04-09 15:43:00,SystemResetWarning,0828.5,4.99,000.00,020.9,020.5,000.0,029.2,022.7,017.7,0000.0,0008.19,0002.05,0001.51
2024-04-09 15:44:00,SystemResetWarning,0828.4,5.00,000.00,021.0,020.5,000.0,029.2,022.7,018.3,0000.0,0008.00,0001.99,0001.49
2024-04-09 15:45:00,SystemResetWarning,0828.4,5.00,000.00,021.0,020.5,000.0,029.2,022.7,018.2,0000.0,0007.57,0002.02,0001.49
2024-04-09 15:46:00,SystemResetWarning,0828.4,5.00,000.00,021.0,020.5,000.0,029.3,022.7,017.8,0000.0,0007.67,0002.05,0001.46
2024-04-09 15:47:00,SystemResetWarning,0828.4,5.01,000.00,021.0,020.5,000.0,029.3,022.7,017.5,0000.0,0007.73,0002.07,0001.46
2024-04-09 15:48:00,SystemResetWarning,0828.4,5.00,000.00,021.0,020.5,000.0,029.3,022.8,017.4,0000.0,0007.69,0002.11,0001.47
2024-04-09 15:49:00,SystemResetWarning,0828.5,5.00,000.00,021.0,020.5,000.0,029.3,022.7,017.2,0000.0,0007.94,0002.13,0001.48
2024-04-09 15:50:00,SystemResetWarning,0828.5,5.00,000.00,021.0,020.5,000.0,029.3,022.8,017.3,0000.0,0007.48,0002.16,0001.49
2024-04-09 15:51:00,SystemResetWarning,0828.5,5.00,000.00,021.0,020.5,000.0,029.3,022.8,017.5,0000.0,0008.39,0002.18,0001.50
2024-04-09 15:52:00,SystemResetWarning,0828.5,5.00,000.00,021.0,020.6,000.0,029.3,022.8,017.6,0000.0,0008.61,0002.23,0001.53
2024-04-09 15:53:00,SystemResetWarning,0828.5,5.00,000.00,021.0,020.6,000.0,029.3,022.8,017.6,0000.0,0008.69,0002.30,0001.53
2024-04-09 15:54:00,SystemResetWarning,0828.6,5.00,000.00,021.0,020.6,000.0,029.3,022.7,017.4,0000.0,0008.74,0002.34,0001.55
2024-04-09 15:55:00,SystemResetWarning,0828.6,5.00,000.00,021.1,020.6,000.0,029.3,022.8,017.2,0000.0,0008.70,0002.39,0001.57
2024-04-09 15:56:00,SystemResetWarning,0828.6,5.00,000.00,021.1,020.6,000.0,029.3,022.8,017.2,0000.0,0009.05,0002.39,0001.59
2024-04-09 15:57:00,SystemResetWarning,0828.6,5.00,000.00,021.1,020.6,000.0,029.4,022.8,017.2,0000.0,0009.64,0002.38,0001.61
2024-04-09 15:58:00,SystemResetWarning,0828.6,5.00,000.00,021.1,020.6,000.0,029.4,022.8,017.5,0000.0,0009.31,0002.46,0001.63
2024-04-09 15:59:00,SystemResetWarning,0828.6,5.00,000.00,021.1,020.6,000.0,029.4,022.8,017.4,0000.0,0009.13,0002.46,0001.64
